Погода в Ужгороде

Погода в Ужгороде : погода сейчас, прогноз погоды и архив. Всё, что Вы хотите узнать о погоде в Ужгороде!

Поиск расширенной информации на нашем сайте:

Другие новости

Новости СМИ2

Главная страница сайта

Новости сайта

02.10.2013

Напоминаем, что на нашем новом сайте вы можете получить высокодетализированные прогнозы погоды по пунктам России, СНГ и мира (включающие важные для авиации метеовеличины, такие как направление и скорость ветра, видимость, явления погоды, количество и форма облачности, нижняя и верхняя граница облачности), а также ознакомиться с разнообразными материалами по авиационной метеорологии и подборкой полезных ссылок на эту тему.

Сайт Метеоцентр.Азия посвящён разработке технологий оптимизации авиаметеорологического обслуживания, включая проектирование и перспективное создание нескольких автоматизированных авиаметеорологических систем:
- система выпуска высокодетальных прогностических карт явлений погоды для нижнего воздушного пространства по России и ближнему зарубежью;
- система верификации прогнозов TAF (выпускаемых синоптиками официальных АМСГ РФ и ближнего зарубежья) и AUTOTAF (выпускаемых сайтом Метеоцентр.Азия) - выявление ошибок, онлайн-сопоставление с фактической погодой METAR, автоматическое внесение коррективов в прогнозы при резком отклонении фактической погоды от прогноза, подсчёт оправдываемости прогнозов по элементам и в целом;
- система обработки, анализа и отображения авиаметеорологической информации для применения провайдерами метеорологической информации.

Рекомендуем: Новые правила по торговле ИП пивом в 2017 году

Погода в Ужгороде - сегодня

Время (UTC), дата Ветер
(°,м/с) 
Видим.   Явления Облачность Т
(°С)
Тd
(°С)
f(%) Тe
(°С)
Pmin
(гПа)
dP
(гПа)
Po
(мм)
O2
(г/м3)
Тmin Tmax R s Состояние
почвы
21 24.04.17 140 (ЮВ) 10 км    8/0 средняя 
[Ac trans]
+8 -0.5 55 +7  1018.7  753  295           
00 25.04.17 110 (В) 10 км    8/0 средняя 
[Ac trans]
+7.4 -0.2 58 +7  1018.1  -0.6  753  295           
03 25.04.17 110 (В) 10 км    10/10 1500 м 
[Sc]
+8.2 -0.5 54 +7  1017.3  -0.8  752  294           
06 25.04.17 130 (ЮВ) 10 км    10/0 средняя 
[Ac As]
+8.6 -0.7 52 +7  1016.3  -0.9  751  294  +6.5         
09 25.04.17 130 (ЮВ) 10 км  {дождь}  9/3 1500 м средняя 
[Sc|Ac trans]
+12.1 +0.9 46 +11  1015.7  -0.5  751  290           
15 25.04.17 170 (Ю) 10 км    8/8 1500 м 
[Cu hum]
+18.7 +5.5 42 +19  1011.5  -1.6  748  281           
18 25.04.17 140 (ЮВ) 10 км  {ливн. осадки}  9/9 1200 м кучево-дожд. 
[Cb calv]
+16.9 +6.4 50 +17  1010.5  -1  747  283    +19.4  0.0     
21 25.04.17 130 (ЮВ) 10 км    4/0 средняя 
[Ac trans]
+15.2 +5.3 52 +16  1011  0.4  748  285           
00 26.04.17 150 (ЮВ) 10 км    9/0 средняя 
[Ac trans]
+14.9 +6.4 57 +15  1010.3  -0.7  747  284           
03 26.04.17 140 (ЮВ) 10 км    8/0 средняя, верхняя 
[Ac trans|Ci fib]
+12.4 +6.2 66 +12  1010.6  0.2  747  287           
06 26.04.17 180 (Ю) 10 км    9/9 1500 м 
[Sc]
+14.2 +5.8 57 +14  1012.1  1.5  749  286  +11.2         
09 26.04.17 190 (Ю) 10 км    9/9 1200 м 
[Sc]
+14.9 +5.9 55 +16  1012.5  0.4  749  285           
12 26.04.17 190 (Ю) 10 км    8/4 1000 м верхняя 
[Cu hum|Ci fib]
+20 +5.1 38 +20  1011  -1.2  748  280           
15 26.04.17 220 (ЮЗ) 10 км    6/4 1000 м средняя 
[Cu hum|Ac trans]
+22 +4.1 31 +22  1010.2  -0.7  747  278           
18 26.04.17 190 (Ю) 10 км    8/4 1000 м средняя 
[Sc|Ac trans]
+18 +6.2 46 +19  1010.2  -0.1  747  281    +22.5       
21 26.04.17 110 (В) 10 км    8/0 верхняя 
[Ci fib]
+14.8 +5.6 54 +16  1010.7  0.3  748  285           
00 27.04.17 120 (ЮВ) 10 км    10/10 930 м 
[Sc]
+15.2 +4.5 49 +15  1010.6  -0.1  747  285           
03 27.04.17 130 (ЮВ) 10 км    8/3 1500 м средняя 
[Sc|Ac trans]
+14.9 +5 51 +16  1010.1  -0.5  747  285           
06 27.04.17 130 (ЮВ) 10 км    8/8 1300 м 
[Sc]
+14.5 +5.9 56 +15  1011.2  1.1  748  285  +13.7         
09 27.04.17 150 (ЮВ) 10 км  {дождь}  8/4 1000 м средняя 
[Sc|Ac trans]
+18.4 +7.8 50 +19  1011.4  0.3  748  281           
12 27.04.17 220 (ЮЗ) 10 км  в посл. час дождь  10/10 1200 м 
[Sc]
+19.4 +7.3 45 +20  1011.9  0.5  749  280      0.0     
15 27.04.17 тихо ()   10 км    9/9 1200 м кучево-дожд. 
[Cb calv]
+20 +7.6 45 +20  1011.1  -0.6  748  280           
18 27.04.17 120 (ЮВ) 10 км    10/10 1200 м 
[Sc]
+17.8 +10.2 61 +20  1011.5  0.2  748  281    +21.5  0.0     
21 27.04.17 280 (З) 10 км    10/10 1000 м 
[Sc]
+12 +9.2 83 +12  1012.3  0.5  749  287           
00 28.04.17 280 (З) 10 км  {дождь}  10/10 900 м 
[Sc]
+10.2 +8.5 89 +10  1011.9  -0.5  748  289      0.0     
Время (UTC), дата Ветер
(°,м/с) 
Видим.   Явления Облачность Т
(°С)
Тd
(°С)
f(%) Тe
(°С)
Pmin
(гПа)
dP
(гПа)
Po
(мм)
O2
(г/м3)
Тmin Tmax R s Состояние
почвы

Для получения пояснительной информации подведите курсор к названию столбца.

ПОГОДА в Ужгороде - архив

Всё, что Вы хотите узнать о погоде в Ужгороде - удобно и подробно!

Выберите нужную дату (начиная с 1 января 2015* года) и нажмите кнопку "Найти".
Будут отображены архивные сводки погоды по пункту Ужгород, начиная с указанной даты.


Отображать данные в формате CSV (для использования в таблицах Excel)


Внимание! Наш архив погоды предназначен исключительно для личного некоммерческого использования в познавательных целях. Если Вам необходимы официальные справки о состоянии погоды (для производственных, юридических, коммерческих и т.п. целей), обращайтесь в органы Росгидромета.

*Примечание: данная дата относится к архиву по метеостанциям СССР (Россия, СНГ, Балтия).
Архив по метеостанциям Зарубежной Европы и Азии (кроме Китая) хранится 10 дней, по другим регионам земного шара (Китай, Африка, Америка, Австралия, Океания) - 1 день.

Ужгород - район местоположения метеостанции


Название, широта, долгота, высота метеостанции:
Ужгород 48.6°ш. 22.3°д. 124 м над ур. моря [Украина]

Дополнительная информация

В oтличие oт бoльшинства пoгoдных сайтoв мы публикуем пoдрoбную метеoинфoрмацию в детальнoм прoфессиoнальнoм фoрмате.

Характеристики температуры и влажнoсти вoздуха измеряются на высoте 2 м в тени вдали oт зданий и деревьев.
Скoрoсть ветра измеряется на высoте 10 м (на урoвне рoста челoвека скoрoсть ветра ниже в 1.5-2 раза). Если метеoстанция нахoдится в гoрoде или в лесу, тo скoрoсть ветра занижена на 2-4 м/с пo сравнению с oткрытым местoм. Скoрoсть ветра над акватoриями крупных рек и oзёр, а также на вершинах хoлмoв на 2-5 м/с выше, чем в oбычных услoвиях.
Атмoсфернoе давление в разных тoчках местнoсти мoжет значительнo oтличаться oт давления на метеoстанции, в зависимoсти oт услoвий рельефа (при пoдъёме на 10 м давление пoнижается примернo на 1 мм рт.ст.).